Weather Roundup
Issued by NWS Corpus Christi, TX

Home | Current Version | Previous Version | Text Only | Print | Product List | Glossary On
Versions: 1 2 3 4 5 6 7 8 9 10 11 12 13 14 15 16 17 18 19 20 21 22 23 24 25 26 27 28 29 30 31 32 33 34 35 36 37 38 39 40 41 42 43 44 45 46 47 48 49 50
000
ASUS44 KCRP 020810
HRRCRP

SOUTH TEXAS REGIONAL WEATHER ROUNDUP
NATIONAL WEATHER SERVICE CORPUS CHRISTI TX
300 AM CDT THU OCT 02 2014


TXZ229>244-020900-
...CORPUS CHRISTI AREA OBSERVATIONS...

CITY           SKY/WX    TMP DP  RH WIND       PRES   REMARKS
CORPUS CHRISTI PTCLDY    81  78  91 S12       29.82S
NAS CORPUS CHR PTCLDY   N/A N/A N/A S15       29.82S
ROCKPORT       PTCLDY    82  78  88 S10G18    29.82S HX  91
KINGSVILLE NAS MOCLDY    80  80 100 S8        29.81F
ALICE          CLEAR     78  76  93 SE6       29.81F FOG
FALFURRIAS     CLOUDY    78  77  96 SE5       29.81S
$$

...VICTORIA AREA OBSERVATIONS...

CITY           SKY/WX    TMP DP  RH WIND       PRES   REMARKS
VICTORIA       PTCLDY    81  79  94 S8        29.83F FOG     HX  90
BEEVILLE       CLOUDY    80  79  98 S9        29.82F FOG
PLEASANTON     MOCLDY    79  75  86 S7        29.83S
SAN ANTONIO    MOCLDY    80  75  84 S10       29.84S
$$

...LAREDO AREA OBSERVATIONS...

CITY           SKY/WX    TMP DP  RH WIND       PRES   REMARKS
LAREDO         CLEAR     80  75  84 SE13      29.81S
COTULLA        CLEAR     79  74  84 SE8       29.81F
DEL RIO        CLEAR     77  69  76 SE8       29.79F
MCALLEN        PTCLDY    79  77  94 S6        29.82S FOG
HEBBRONVILLE   CLEAR     77  75  93 SE7       29.83S FOG
$$

...OTHER TEXAS OBSERVATIONS...

CITY           SKY/WX    TMP DP  RH WIND       PRES   REMARKS
BROWNSVILLE    CLEAR     82  82 100 S12       29.82S HX  96
HOUSTON        MOCLDY    80  77  90 S5        29.85S
COL. STATION   CLOUDY    78  75  90 S12       29.84S
AUSTIN         CLOUDY    80  74  81 S10       29.81F
WACO           MOCLDY    78  72  81 S15       29.80S
FORT WORTH     PTCLDY    80  70  71 S14G24    29.76S
WICHITA FALLS  PTCLDY    79  67  66 S14       29.71R
LUBBOCK        CLEAR     59  49  69 S13       29.82S
EL PASO        CLEAR     69  36  29 W3        29.94R
$$

...MARINE OBSERVATIONS...

STATION/POSITION TIME  SKY/WX   TEMP    WIND        PRES    VSBY  WAVE   SWELL
                                AIR SEA DIR/SP/G                  HT/PER HT/PER
                 (UTC)          (F)     (DEG/KT/KT) (MB)    (MI)  (FT/S) (FT/S)
PORT ARANSAS     0800            83 83  160/ 15/ 18 1010.4S
BUOY 90 E PORT A 0800            84 83  170/ 16/ 17 1011.0S         4/ 5
BUOY 45 SE BAFFI 0800            83 84  170/ 16/ 19 1009.4F         4/ 6
BUOY 200 E PT IS 0800            84 84  160/ 12/ 14 1011.8F         2/ 5
BUOY 15 E GALVES 0800            82 82  180/ 14/ 16 1010.6F         2/ 4
$$


USA.gov is the U.S. government's official web portal to all federal, state and local government web resources and services.